Aérodrome :
LOGIN :

S'inscrire | Disclaimer

   EN    FR    IT 

 










Légende :    VFR   VFR Marginal   IFR   IFR Intensif   IFR Très Intensif
Visi : 
Plafond : 
>= 8 km
>= 3000ft
5 à 8 km
1000 à 3000 ft
1500m à 5 km
500 à 1000 ft
800 à 1500m
200 à 500 ft
< 800m
< 200 ft
Symboles :   Orages  Brouillard  Fortes neiges  Fortes précipitations  Vent > 20 kt
SIGMETs :   Divers  Orages  Givrage  Turbulence  Onde Orograph.  Cendres Volcan.







- Altitude de l'aérodrome : 22 ft
- Code IATA : TUN


DTTA - Tunis Carthage

DERNIER METAR :
  • 181100Z 18004KT 110V240 CAVOK 27/12 Q1018 NOSIG

METARs EXPIRÉS :
  • 181030Z 15005KT 110V190 CAVOK 26/13 Q1019 NOSIG
  • 181000Z 18006KT 130V260 CAVOK 25/13 Q1019 NOSIG
  • 180930Z 18007KT 100V210 CAVOK 24/13 Q1019 NOSIG
  • 180900Z 18007KT CAVOK 24/14 Q1019 NOSIG
  • 180830Z 19005KT 070V220 CAVOK 23/14 Q1020 NOSIG

TAF TAF DTTA
Valide du 18 à 06h jusqu'au 19 à 06h UTC


180536Z 1806/1906 18008KT CAVOK
Pas de NOTAMs connus pour ce terrain.



MET'MAP, la Météo Aéronautique d'un coup d'oeil ! - Copyright ORBIFLY Décembre 2007 - Disclaimer

ORBIFLY MET'MAP TEAM :

Programmation & Développement : Alexandra Zaïnal
Conception & Développement : Baudouin d'Aumeries
Co-Programmation & Développement : Marc-Olivier Méhu
Soutien technique & logistique : Manuel Goepfert

Contact : metmap@orbifly.com




SOURCES & CREDITS :

   NOAA